Weather History for Lincolnton, NC

Change the Weather History Date:

Sunday, December 30, 2012

  Actual Average (KCLT) Record (KCLT)
Temperature  
Mean Temperature 36 °F 40 °F  
Max Temperature 46 °F 50 °F 76 °F (1984)
Min Temperature 26 °F 30 °F -5 °F (1880)
Degree Days  
Heating Degree Days 29 25  
Month to date heating degree days 676  
Since 1 July heating degree days 1312  
Cooling Degree Days 0 0  
Month to date cooling degree days 0  
Year to date cooling degree days 1517  
Moisture  
Dew Point 21 °F    
Average Humidity 59    
Maximum Humidity 86    
Minimum Humidity 29    
Precipitation  
Precipitation 0.00 in 0.10 in 1.21 in (2007)
Month to date precipitation 3.15  
Year to date precipitation 41.53  
Snow  
Snow 0.00 in 0.10 in 4.90 in (1882)
Month to date snowfall 0.3  
Since 1 July snowfall 0.4  
Snow Depth -    
Sea Level Pressure  
Sea Level Pressure 30.27 in    
Wind  
Wind Speed 3 mph (West)    
Max Wind Speed 9 mph    
Max Gust Speed -    
Visibility 10 miles    
Events      
T = Trace of Precipitation, MM = Missing Value Source: NWS Daily Summary

Daily Weather History Graph

Daily Weather History Graph

Search for Another Location

Airport:

Trip Planner

Search our weather history database for the weather conditions in past years. The results will help you decide how hot, cold, wet, or windy it might be!

Date:

Astronomy

Dec. 30, 2012 Rise Set
Actual Time 7:33 AM EST 5:21 PM EST
Civil Twilight 7:05 AM EST 5:49 PM EST
Nautical Twilight 6:33 AM EST 6:21 PM EST
Astronomical Twilight 6:02 AM EST 6:52 PM EST
Moon 7:45 PM EST (12/30) 8:46 AM EST (12/30)
Length of Visible Light 10h 44m
Length of Day
9h 47m
Waning Gibbous, 95% of the Moon is Illuminated
Dec 30
Waning Gibbous
Jan 4
Last Quarter
Jan 11
New
Jan 18
First Quarter
Jan 26
Full

Hourly Weather History & Observations

Time (EST) Temp. Windchill Dew Point Humidity Pressure Visibility Wind Dir Wind Speed Gust Speed Precip Events Conditions
12:15 AM 32.0 °F 27.5 °F 24.8 °F 75% 30.05 in 10.0 mi West 4.6 mph - N/A   Overcast
12:35 AM 33.8 °F 28.6 °F 23.0 °F 65% 30.05 in 10.0 mi WNW 5.8 mph - N/A   Mostly Cloudy
12:55 AM 33.8 °F 29.6 °F 23.0 °F 65% 30.06 in 10.0 mi West 4.6 mph - N/A   Scattered Clouds
1:15 AM 33.8 °F - 21.2 °F 60% 30.06 in 10.0 mi Calm Calm - N/A   Scattered Clouds
1:35 AM 33.8 °F 29.6 °F 21.2 °F 60% 30.07 in 10.0 mi WNW 4.6 mph - N/A   Scattered Clouds
1:55 AM 33.8 °F - 21.2 °F 60% 30.08 in 10.0 mi Calm Calm - N/A   Scattered Clouds
2:15 AM 33.8 °F 29.6 °F 21.2 °F 60% 30.08 in 10.0 mi West 4.6 mph - N/A   Scattered Clouds
2:35 AM 32.0 °F 26.4 °F 21.2 °F 64% 30.09 in 10.0 mi West 5.8 mph - N/A   Clear
2:55 AM 32.0 °F 27.5 °F 21.2 °F 64% 30.10 in 10.0 mi West 4.6 mph - N/A   Clear
3:15 AM 32.0 °F - 19.4 °F 60% 30.11 in 10.0 mi Calm Calm - N/A   Clear
3:35 AM 32.0 °F - 19.4 °F 60% 30.11 in 10.0 mi Calm Calm - N/A   Clear
3:55 AM 30.2 °F - 21.2 °F 69% 30.12 in 10.0 mi Calm Calm - N/A   Clear
4:15 AM 30.2 °F - 21.2 °F 69% 30.13 in 10.0 mi Calm Calm - N/A   Clear
4:35 AM 32.0 °F 28.7 °F 21.2 °F 64% 30.13 in 10.0 mi WNW 3.5 mph - N/A   Clear
4:55 AM 32.0 °F 28.7 °F 19.4 °F 60% 30.14 in 10.0 mi West 3.5 mph - N/A   Clear
5:15 AM 30.2 °F - 21.2 °F 69% 30.15 in 10.0 mi Calm Calm - N/A   Clear
5:35 AM 30.2 °F - 21.2 °F 69% 30.15 in 10.0 mi Calm Calm - N/A   Clear
5:55 AM 32.0 °F 28.7 °F 19.4 °F 60% 30.17 in 10.0 mi WNW 3.5 mph - N/A   Clear
6:15 AM 32.0 °F 27.5 °F 19.4 °F 60% 30.19 in 10.0 mi WNW 4.6 mph - N/A   Clear
6:35 AM 32.0 °F - 19.4 °F 60% 30.20 in 10.0 mi Calm Calm - N/A   Clear
6:55 AM 30.2 °F - 19.4 °F 64% 30.21 in 10.0 mi Calm Calm - N/A   Clear
7:15 AM 28.4 °F 24.6 °F 21.2 °F 74% 30.22 in 10.0 mi WNW 3.5 mph - N/A   Clear
7:35 AM 30.2 °F - 19.4 °F 64% 30.24 in 10.0 mi Calm Calm - N/A   Clear
7:55 AM 28.4 °F - 19.4 °F 69% 30.26 in 10.0 mi Calm Calm - N/A   Clear
8:15 AM 30.2 °F - 21.2 °F 69% 30.27 in 10.0 mi Calm Calm - N/A   Clear
8:35 AM 30.2 °F - 23.0 °F 75% 30.28 in 10.0 mi Calm Calm - N/A   Clear
8:55 AM 32.0 °F - 23.0 °F 69% 30.28 in 10.0 mi Calm Calm - N/A   Clear
9:15 AM 33.8 °F - 21.2 °F 60% 30.30 in 10.0 mi Calm Calm - N/A   Clear
9:35 AM 35.6 °F - 19.4 °F 52% 30.31 in 10.0 mi Calm Calm - N/A   Clear
9:55 AM 35.6 °F - 19.4 °F 52% 30.32 in 10.0 mi Calm Calm - N/A   Clear
10:15 AM 37.4 °F 34.9 °F 19.4 °F 48% 30.33 in 10.0 mi West 3.5 mph - N/A   Clear
10:35 AM 37.4 °F - 19.4 °F 48% 30.35 in 10.0 mi Calm Calm - N/A   Clear
10:55 AM 39.2 °F 33.6 °F 19.4 °F 45% 30.36 in 10.0 mi West 8.1 mph - N/A   Clear
11:15 AM 39.2 °F 33.6 °F 17.6 °F 42% 30.35 in 10.0 mi West 8.1 mph - N/A   Clear
11:35 AM 41.0 °F 36.4 °F 17.6 °F 39% 30.35 in 10.0 mi SW 6.9 mph - N/A   Clear
11:55 AM 41.0 °F 38.0 °F 19.4 °F 42% 30.33 in 10.0 mi WSW 4.6 mph - N/A   Clear
12:15 PM 42.8 °F 39.3 °F 19.4 °F 39% 30.34 in 10.0 mi West 5.8 mph - N/A   Clear
12:35 PM 42.8 °F 39.3 °F 17.6 °F 36% 30.33 in 10.0 mi WSW 5.8 mph - N/A   Clear
12:55 PM 42.8 °F 39.3 °F 17.6 °F 36% 30.33 in 10.0 mi WSW 5.8 mph - N/A   Clear
1:15 PM 44.6 °F 43.1 °F 17.6 °F 34% 30.33 in 10.0 mi West 3.5 mph - N/A   Clear
1:35 PM 44.6 °F 42.2 °F 17.6 °F 34% 30.32 in 10.0 mi West 4.6 mph - N/A   Clear
1:55 PM 46.4 °F 41.9 °F 17.6 °F 32% 30.32 in 10.0 mi SW 9.2 mph - N/A   Clear
2:15 PM 46.4 °F 42.4 °F 17.6 °F 32% 30.32 in 10.0 mi WSW 8.1 mph - N/A   Clear
2:35 PM 46.4 °F 45.2 °F 15.8 °F 29% 30.32 in 10.0 mi WNW 3.5 mph - N/A   Clear
2:55 PM 46.4 °F 42.4 °F 17.6 °F 32% 30.31 in 10.0 mi SW 8.1 mph - N/A   Clear
3:15 PM 46.4 °F 42.4 °F 17.6 °F 32% 30.31 in 10.0 mi West 8.1 mph - N/A   Clear
3:35 PM 46.4 °F 42.4 °F 17.6 °F 32% 30.32 in 10.0 mi WSW 8.1 mph - N/A   Clear
3:55 PM 46.4 °F 43.5 °F 17.6 °F 32% 30.32 in 10.0 mi WSW 5.8 mph - N/A   Clear
4:15 PM 46.4 °F 42.4 °F 17.6 °F 32% 30.32 in 10.0 mi WSW 8.1 mph - N/A   Clear
4:35 PM 44.6 °F 42.2 °F 19.4 °F 37% 30.32 in 10.0 mi WSW 4.6 mph - N/A   Clear
4:55 PM 44.6 °F 40.2 °F 19.4 °F 37% 30.33 in 10.0 mi SW 8.1 mph - N/A   Clear
5:15 PM 41.0 °F 37.1 °F 19.4 °F 42% 30.33 in 10.0 mi WSW 5.8 mph - N/A   Clear
5:35 PM 41.0 °F - 19.4 °F 42% 30.33 in 10.0 mi Calm Calm - N/A   Clear
5:55 PM 35.6 °F 32.8 °F 21.2 °F 56% 30.34 in 10.0 mi West 3.5 mph - N/A   Clear
6:15 PM 35.6 °F - 21.2 °F 56% 30.34 in 10.0 mi Calm Calm - N/A   Clear
6:35 PM 33.8 °F - 21.2 °F 60% 30.35 in 10.0 mi Calm Calm - N/A   Clear
6:55 PM 33.8 °F - 23.0 °F 65% 30.36 in 10.0 mi Calm Calm - N/A   Clear
7:15 PM 32.0 °F - 23.0 °F 69% 30.36 in 10.0 mi Calm Calm - N/A   Clear
7:35 PM 30.2 °F - 23.0 °F 75% 30.37 in 10.0 mi Calm Calm - N/A   Clear
7:55 PM 30.2 °F - 23.0 °F 75% 30.37 in 10.0 mi Calm Calm - N/A   Clear
8:15 PM 28.4 °F - 23.0 °F 80% 30.36 in 10.0 mi Calm Calm - N/A   Clear
8:35 PM 30.2 °F - 23.0 °F 75% 30.36 in 10.0 mi Calm Calm - N/A   Clear
8:55 PM 28.4 °F - 23.0 °F 80% 30.37 in 10.0 mi Calm Calm - N/A   Clear
9:15 PM 28.4 °F - 23.0 °F 80% 30.38 in 10.0 mi Calm Calm - N/A   Clear
9:35 PM 28.4 °F - 24.8 °F 86% 30.38 in 10.0 mi Calm Calm - N/A   Clear
9:55 PM 26.6 °F - 23.0 °F 86% 30.38 in 7.0 mi Calm Calm - N/A   Clear
10:15 PM 28.4 °F - 23.0 °F 80% 30.37 in 7.0 mi Calm Calm - N/A   Clear
10:35 PM 28.4 °F - 23.0 °F 80% 30.37 in 10.0 mi Calm Calm - N/A   Clear
10:55 PM 26.6 °F - 23.0 °F 86% 30.36 in 10.0 mi Calm Calm - N/A   Clear
11:15 PM 26.6 °F - 23.0 °F 86% 30.36 in 7.0 mi Calm Calm - N/A   Clear
11:35 PM 26.6 °F - 23.0 °F 86% 30.36 in 10.0 mi Calm Calm - N/A   Clear
11:55 PM 26.6 °F - 23.0 °F 86% 30.35 in 10.0 mi Calm Calm - N/A   Clear